Vertical_Velocity
1 0 2 1 -2 -1 1 -1 -1 -1 -2 1 2 1 1 2 3 -3 6 -0 -8 -3 11 -5 6 12 13 3 -3 42 2 -12 8 -9 3 -2 -10 -19 -9 -3 -2 32 36 -22 19 -20 -75 18 5 -25 35 -4 13 9
1 -1 0 -2 0 0 -2 -3 -2 1 -1 3 1 1 0 1 4 0 -2 3 0 -21 22 -7 3 2 -1 15 -8 -2 -20 1 -2 -9 -10 2 -4 8 11 -11 19 -10 -28 -14 -11 -4 14 6 10 -0 9 13 -4 16
0 1 -0 1 -1 -2 -3 -0 1 1 2 2 2 1 1 -0 4 2 1 2 -2 -6 1 -10 25 11 -9 10 25 -4 -5 19 -2 14 7 -3 -12 28 5 -52 4 -12 41 -23 7 -14 2 10 0 5 0 3 -6 1
1 1 0 -2 -1 -3 -0 0 1 1 2 2 1 1 -1 0 3 1 -0 3 3 3 -23 5 15 -4 18 -4 6 -0 4 -5 -5 -14 4 -5 2 11 -14 13 -17 26 59 -3 15 -4 4 5 7 5 -1 -4 3 3
0 -1 -1 -1 -3 -0 -0 1 2 1 2 -0 -0 1 0 3 3 2 2 -4 4 9 -5 -1 3 12 -2 2 2 -4 -1 3 -1 1 -18 -5 -1 9 21 0 20 -8 27 -18 -10 33 15 -1 3 -5 2 0 -1 1
-1 -1 -1 -2 -1 1 0 -0 1 -1 0 1 -1 1 1 3 6 6 -8 -6 10 14 -2 -9 9 5 4 3 -3 -3 -2 -1 3 -10 -1 -6 10 3 3 -8 21 -4 5 7 7 -4 5 -0 -5 -1 4 0 2 2
-1 -1 -1 -2 -0 1 -0 0 -1 -1 0 -0 2 1 -1 3 2 11 7 13 18 10 -1 -3 -0 -2 -2 -8 -4 -6 0 -8 -3 -9 -11 0 9 -3 0 14 23 61 9 4 4 1 2 5 4 4 4 -3 -0 -1
-1 -1 -1 -0 -0 1 2 -0 -1 3 1 1 1 -1 -5 0 -4 -1 9 6 8 5 0 -2 2 0 2 -1 -6 3 -5 4 -15 -4 13 5 3 -2 -25 27 6 17 6 5 6 12 3 -0 -2 -2 -4 2 2 -0
-1 -2 -1 -0 -1 0 0 -1 0 1 1 1 1 1 -5 1 -1 -3 -5 -9 -7 -2 -1 -1 1 1 6 12 21 15 4 -13 -1 -4 -1 -2 15 -16 9 11 2 11 11 3 22 1 -3 -3 4 2 3 0 3 3
-1 -2 1 0 -1 0 -1 -0 0 -0 -1 0 0 5 -4 -1 1 2 -5 -3 -1 -4 -4 -6 -2 2 12 22 15 25 4 -2 -4 19 21 6 -6 2 -4 28 7 -2 7 3 -2 1 1 -1 3 3 6 3 1 -2
-2 -0 0 -0 -1 -1 -1 0 -1 1 -1 -0 1 -1 -1 1 -0 -3 -3 -5 -4 1 5 4 6 5 7 27 18 -1 7 -9 -7 -1 -1 -7 -1 7 2 0 -0 -1 0 4 -3 -1 2 0 1 1 2 7 2 0
-0 -0 -0 -1 -1 -1 -2 -0 -2 0 -1 0 -1 -2 -3 -3 1 -6 -2 3 1 3 9 2 5 -3 2 -4 12 16 13 14 3 5 -4 -5 9 0 3 5 0 0 -3 -0 6 2 -5 5 8 10 -1 4 6 2
-0 -1 -0 -1 -1 -1 -2 -1 -1 -3 -0 -4 1 1 -3 0 -3 -3 -2 2 4 0 11 17 17 -5 -3 10 1 5 18 -8 8 8 -8 1 2 4 9 6 1 2 14 21 20 6 4 4 2 3 3 -3 -0 -1
-0 -1 0 -0 -1 -1 -2 -2 -0 -0 -3 -3 -4 -3 -2 0 3 5 1 2 -2 5 0 -2 -4 -1 5 8 5 4 13 5 9 10 7 6 2 -0 2 0 -0 0 -4 5 3 0 3 8 2 -1 -1 2 -0 -0
0 0 0 0 -0 -1 -1 -1 -1 -1 -0 -1 -3 -3 0 -0 -3 0 2 2 2 4 3 -0 4 5 -1 1 2 1 -1 -4 3 0 2 1 -3 -3 -4 -5 10 2 -0 3 1 3 -0 -3 -3 -1 1 2 2 1
1 1 1 1 0 -0 -1 -1 -2 -1 -1 -1 -0 0 -3 -2 0 -1 -3 -2 -1 -1 2 4 -1 -2 1 1 -2 -0 -2 1 -0 -0 1 2 2 6 7 2 5 2 6 4 1 -1 0 -1 -1 -1 -1 -1 -2 -1
0 -0 1 0 -0 -0 -1 -1 -1 -2 -0 -0 -2 -1 -1 -1 -2 -0 4 2 -1 -3 -3 -3 0 3 3 1 -1 -1 -2 -2 1 3 3 3 3 1 2 1 4 0 -1 0 -2 1 2 1 0 0 1 0 0 0
-1 -1 0 0 0 1 0 -0 -0 -1 -1 -1 -1 -0 0 -1 -1 -1 -1 -1 1 3 3 0 0 -0 -0 0 -2 -1 -2 -1 -2 -2 0 0 0 1 1 2 3 3 3 2 2 1 1 1 0 -0 1 1 2 0
1 0 0 0 -0 0 1 0 -0 -0 -0 -1 -1 0 0 0 -1 -2 -1 -1 -1 -1 0 1 2 2 1 1 0 -0 -2 -0 0 0 -1 0 1 -0 -1 0 1 2 2 2 1 1 2 1 1 1 1 -0 -0 -2
1 1 0 0 -1 -1 0 0 -0 -0 0 0 -1 -0 -0 -0 -0 -0 -0 -1 -1 -1 -1 -1 -1 -1 -1 -1 -1 0 1 1 0 -0 0 0 1 2 2 3 3 3 2 1 1 2 1 -1 -1 -1 -0 -1 -1 -1
2 1 1 0 -1 -1 -0 -0 -0 0 -0 0 -1 -1 -1 -1 -1 -1 -2 -2 -1 -0 -1 -2 -2 -1 -2 -1 -2 -3 -2 -1 -1 -2 -2 -2 -4 -4 -3 -3 -2 -0 -1 1 1 1 0 -0 -1 -0 0 -1 -0 -0
1 1 1 0 -0 -0 -0 -0 0 1 -0 0 -1 -1 -1 -1 -2 -2 -2 -2 -1 0 -0 -0 -1 -2 -1 -2 -2 -3 -3 -3 -2 -2 -2 -1 -1 -0 1 2 1 1 1 2 2 1 1 1 1 1 1 -0 1 0
2 1 1 0 -1 -0 -1 -1 0 1 0 0 -1 -1 -0 -1 -1 -1 -1 -0 -1 -2 -2 -2 -2 -2 -1 -1 -1 -1 -2 -3 -4 -5 -4 -4 -4 -3 -3 -1 1 -0 0 1 0 0 1 1 0 1 1 -2 -3 3
1 1 1 -3 -1 -1 3 0 -0 -1 1 -1 -1 -0 0 0 -1 -1 -0 1 -0 -1 -1 -0 0 0 -0 0 -0 -1 0 1 -1 -1 -2 -0 -0 1 1 0 1 2 2 1 1 2 1 0 0 0 -0 0 -0 1
2 -4 -4 1 2 2 1 -0 -0 -1 1 -1 -2 0 1 0 -1 -2 0 1 -0 -0 -1 -0 -0 1 1 1 0 0 1 -1 -1 -0 -1 -1 -2 -1 -1 -1 -0 -0 -0 1 1 1 1 0 -0 0 1 0 -0 -0
0 -0 -1 4 3 -1 1 -0 -1 2 -1 -1 1 2 1 -1 -2 -0 0 0 -0 -0 -1 -1 -1 0 1 2 1 -0 -1 0 1 1 -0 -1 -1 -1 -0 0 -0 -1 -0 -0 -1 0 -0 0 1 1 0 -0 -0 0
-6 1 5 4 2 2 0 -1 -1 -1 -0 1 1 -1 -1 -0 -0 0 -0 1 1 -0 -1 -0 -2 -2 0 1 -0 -1 -1 -1 -0 1 3 3 2 3 2 0 -1 -1 1 0 -0 0 1 1 1 0 0 0 0 0
1 4 3 0 1 1 -0 -1 -1 -1 1 1 -2 -2 -0 2 0 -1 -1 1 1 -1 -1 -0 -0 -0 -0 -1 -1 -1 -2 -1 -0 0 -0 0 0 -0 -1 -1 0 1 -0 -1 -0 0 -0 -0 0 0 1 1 1 0
3 3 0 1 -0 1 -0 -1 1 2 2 -1 -0 -0 2 -0 -0 0 1 0 0 -1 -2 -2 -1 -1 0 -1 -2 -0 -1 0 0 -1 -4 -3 -2 -2 -1 0 0 -0 -1 -1 -0 0 1 1 1 2 1 0 1 1
2 -1 0 1 1 -0 2 -1 1 -1 -1 0 0 0 1 1 0 0 0 -1 0 -0 -1 -2 -2 -1 -2 0 -0 -2 0 -0 -2 -2 -1 -1 -0 1 0 1 1 0 -0 0 1 1 1 1 1 1 0 1 1 1
2 1 1 -1 0 2 -1 -1 0 -0 1 1 -0 0 -0 1 1 0 -0 -1 1 0 -0 -1 -1 -1 -1 -1 1 1 -2 -1 2 0 -1 1 -2 -2 -1 -2 -2 -0 0 0 1 1 1 1 1 0 0 0 1 1
-1 0 -1 -1 2 -1 -1 -0 0 1 1 0 0 -1 -0 -0 1 1 0 -0 -0 -0 -1 -1 -1 -1 -0 -0 0 1 1 -0 -0 1 3 2 2 0 -1 1 1 0 0 -0 -0 -0 -0 0 0 1 1 1 1 1
2 -2 -1 1 -4 -3 2 1 1 -0 -1 -0 -1 -1 -1 0 3 0 1 0 0 -0 0 -1 -2 -1 -0 0 0 -0 1 2 1 -1 -0 1 1 2 1 0 1 2 1 -0 0 0 1 1 1 1 1 1 1 1
Height
5499 5501 5502 5502 5502 5500 5498 5495 5493 5490 5487 5483 5481 5480 5478 5475 5470 5464 5463 5460 5458 5461 5467 5467 5471 5474 5476 5479 5483 5494 5488 5492 5490 5489 5489 5496 5497 5507 5518 5539 5550 5565 5570 5577 5592 5600 5604 5616 5620 5624 5630 5631 5634 5633
5490 5492 5493 5494 5493 5490 5488 5485 5482 5479 5476 5472 5471 5470 5467 5463 5458 5453 5450 5449 5448 5447 5458 5455 5458 5460 5462 5467 5471 5474 5477 5481 5479 5479 5482 5486 5488 5499 5513 5525 5545 5548 5559 5572 5584 5594 5603 5605 5609 5612 5615 5618 5618 5622
5483 5484 5486 5485 5483 5481 5479 5476 5473 5470 5466 5464 5462 5459 5455 5451 5447 5443 5441 5438 5435 5437 5442 5443 5449 5453 5454 5457 5461 5461 5467 5472 5468 5473 5472 5473 5479 5494 5508 5530 5542 5548 5560 5562 5573 5582 5590 5596 5598 5601 5604 5607 5607 5610
5476 5477 5477 5476 5475 5473 5470 5468 5466 5462 5458 5455 5452 5449 5445 5441 5436 5432 5430 5429 5428 5429 5430 5434 5440 5440 5444 5445 5448 5453 5461 5459 5460 5460 5461 5464 5469 5483 5494 5505 5512 5525 5546 5554 5564 5573 5581 5585 5587 5590 5593 5594 5597 5599
5468 5470 5470 5468 5467 5465 5463 5461 5459 5455 5451 5447 5444 5440 5435 5430 5426 5422 5420 5421 5422 5423 5424 5427 5429 5431 5433 5436 5440 5446 5448 5450 5451 5452 5453 5458 5467 5474 5486 5494 5504 5518 5535 5543 5556 5566 5571 5575 5576 5579 5582 5583 5585 5588
5462 5463 5462 5461 5460 5458 5456 5454 5452 5448 5444 5441 5436 5431 5426 5420 5416 5412 5411 5413 5414 5418 5419 5420 5424 5424 5426 5429 5433 5436 5439 5441 5443 5445 5448 5452 5464 5471 5480 5491 5505 5518 5527 5539 5547 5554 5560 5565 5569 5571 5573 5575 5576 5577
5455 5456 5456 5454 5453 5452 5451 5448 5445 5442 5438 5434 5429 5424 5417 5411 5406 5404 5404 5407 5412 5415 5415 5417 5417 5419 5419 5421 5425 5427 5430 5433 5435 5437 5439 5449 5459 5463 5472 5482 5491 5511 5521 5529 5538 5547 5553 5557 5561 5562 5565 5565 5565 5567
5449 5450 5449 5448 5447 5446 5445 5442 5439 5438 5434 5429 5424 5418 5410 5405 5398 5398 5400 5402 5408 5411 5411 5410 5414 5414 5414 5417 5418 5421 5423 5425 5426 5431 5442 5453 5460 5470 5474 5482 5490 5503 5514 5523 5531 5538 5543 5547 5551 5553 5553 5554 5555 5557
5443 5444 5444 5442 5442 5441 5439 5437 5435 5433 5430 5426 5422 5416 5407 5404 5402 5399 5399 5402 5404 5408 5407 5408 5410 5412 5412 5413 5413 5414 5416 5419 5425 5432 5444 5453 5458 5465 5475 5485 5492 5500 5509 5517 5522 5528 5533 5539 5542 5542 5544 5546 5547 5549
5437 5438 5438 5437 5437 5436 5434 5432 5431 5430 5427 5424 5421 5416 5410 5405 5403 5403 5405 5405 5405 5407 5408 5408 5410 5409 5408 5409 5413 5416 5419 5424 5429 5439 5445 5451 5460 5466 5473 5482 5490 5498 5506 5512 5516 5521 5527 5531 5533 5534 5535 5538 5540 5542
5431 5432 5432 5432 5432 5432 5430 5428 5427 5426 5425 5422 5421 5417 5414 5409 5407 5406 5407 5409 5411 5411 5411 5412 5411 5411 5410 5411 5419 5423 5430 5435 5441 5446 5449 5453 5461 5467 5474 5480 5485 5490 5497 5503 5508 5515 5520 5522 5525 5527 5527 5529 5530 5532
5426 5427 5427 5428 5428 5427 5426 5424 5423 5423 5422 5421 5421 5419 5418 5415 5414 5413 5412 5412 5412 5414 5415 5416 5415 5415 5417 5418 5422 5427 5432 5437 5442 5448 5450 5452 5460 5465 5473 5480 5484 5489 5494 5499 5504 5508 5511 5515 5516 5517 5519 5520 5521 5521
5420 5422 5423 5423 5423 5424 5423 5421 5420 5420 5420 5419 5419 5419 5418 5418 5417 5417 5416 5416 5416 5416 5416 5419 5421 5422 5422 5422 5425 5427 5431 5436 5440 5443 5446 5451 5456 5460 5466 5473 5478 5483 5487 5489 5494 5498 5501 5504 5507 5509 5510 5512 5513 5514
5415 5417 5418 5419 5420 5420 5420 5419 5417 5417 5417 5418 5417 5418 5418 5418 5416 5415 5416 5416 5417 5416 5419 5420 5422 5423 5425 5426 5428 5430 5434 5437 5438 5439 5442 5447 5452 5457 5461 5467 5472 5476 5480 5483 5485 5489 5491 5493 5497 5499 5502 5503 5502 5502
5410 5412 5414 5415 5416 5417 5417 5417 5417 5415 5415 5414 5415 5415 5414 5414 5415 5415 5414 5414 5414 5414 5414 5415 5418 5421 5424 5425 5428 5431 5434 5435 5437 5440 5442 5444 5448 5452 5456 5460 5464 5469 5473 5477 5478 5480 5482 5485 5488 5490 5491 5491 5490 5490
5405 5408 5410 5411 5412 5413 5414 5414 5414 5414 5413 5413 5412 5412 5411 5411 5411 5412 5413 5414 5413 5412 5412 5413 5415 5417 5418 5420 5423 5426 5428 5430 5434 5436 5438 5441 5444 5447 5451 5454 5458 5462 5465 5468 5470 5473 5475 5476 5478 5479 5479 5479 5479 5479
5399 5402 5404 5406 5408 5409 5410 5411 5411 5412 5412 5412 5411 5411 5410 5409 5409 5409 5409 5410 5411 5412 5413 5414 5413 5413 5413 5416 5418 5420 5422 5425 5427 5429 5432 5435 5438 5440 5443 5446 5449 5452 5455 5457 5460 5462 5464 5465 5467 5468 5469 5469 5469 5470
5391 5395 5398 5401 5403 5405 5406 5408 5409 5410 5410 5410 5410 5410 5410 5410 5410 5409 5408 5408 5408 5407 5408 5409 5409 5410 5411 5412 5413 5415 5417 5419 5421 5423 5426 5428 5430 5433 5435 5437 5440 5443 5445 5448 5450 5452 5455 5456 5457 5458 5460 5461 5461 5461
5385 5389 5392 5395 5398 5401 5403 5405 5406 5407 5408 5408 5409 5409 5409 5409 5409 5409 5409 5409 5409 5408 5408 5407 5408 5407 5408 5408 5410 5411 5412 5413 5415 5417 5419 5421 5423 5426 5428 5431 5433 5435 5437 5439 5442 5444 5446 5448 5450 5451 5453 5454 5454 5454
5378 5382 5386 5389 5392 5395 5398 5400 5402 5403 5405 5406 5406 5407 5407 5408 5407 5408 5408 5408 5408 5409 5409 5408 5408 5407 5407 5407 5407 5407 5408 5409 5410 5411 5413 5416 5418 5420 5422 5423 5425 5427 5430 5432 5434 5436 5439 5441 5442 5444 5446 5447 5447 5448
5370 5375 5379 5382 5386 5390 5393 5395 5397 5399 5401 5402 5403 5404 5404 5404 5405 5405 5406 5406 5406 5406 5406 5407 5407 5407 5406 5406 5406 5406 5406 5407 5407 5409 5410 5411 5413 5415 5417 5418 5420 5421 5423 5425 5427 5429 5431 5433 5436 5438 5439 5441 5442 5442
5362 5366 5371 5375 5379 5383 5387 5389 5392 5394 5397 5398 5400 5400 5401 5401 5401 5401 5402 5403 5404 5404 5404 5404 5404 5404 5405 5405 5405 5405 5405 5406 5407 5407 5408 5409 5410 5412 5413 5414 5416 5417 5418 5420 5422 5424 5426 5428 5430 5433 5434 5436 5437 5438
5353 5358 5363 5367 5371 5375 5380 5383 5386 5389 5391 5393 5395 5396 5397 5398 5398 5399 5399 5400 5400 5400 5400 5400 5400 5400 5400 5400 5401 5402 5402 5403 5404 5405 5406 5406 5407 5408 5409 5410 5411 5412 5413 5415 5416 5419 5421 5424 5426 5428 5430 5432 5433 5434
5344 5349 5354 5358 5363 5368 5374 5376 5379 5382 5385 5387 5389 5391 5393 5394 5394 5395 5395 5396 5396 5396 5396 5397 5396 5396 5396 5395 5396 5397 5398 5400 5401 5402 5403 5404 5405 5406 5407 5408 5408 5409 5410 5411 5413 5415 5418 5420 5423 5425 5427 5429 5429 5430
5335 5340 5345 5349 5355 5362 5365 5369 5372 5376 5379 5381 5383 5386 5388 5389 5390 5391 5392 5392 5392 5392 5392 5392 5392 5391 5391 5390 5390 5391 5393 5395 5396 5398 5400 5401 5402 5403 5404 5405 5407 5407 5409 5410 5411 5413 5415 5418 5420 5421 5423 5425 5426 5426
5325 5330 5337 5342 5347 5352 5357 5361 5364 5368 5371 5374 5378 5380 5381 5383 5385 5387 5388 5388 5388 5389 5388 5388 5388 5387 5385 5385 5385 5385 5387 5390 5392 5394 5395 5397 5398 5400 5402 5403 5403 5404 5405 5407 5409 5411 5413 5415 5417 5419 5421 5422 5423 5423
5315 5322 5328 5333 5338 5343 5348 5351 5355 5359 5363 5367 5370 5372 5374 5377 5380 5382 5383 5383 5384 5384 5384 5384 5383 5382 5380 5379 5379 5380 5383 5385 5388 5390 5393 5394 5395 5397 5398 5398 5398 5399 5401 5404 5406 5409 5410 5412 5414 5416 5418 5419 5420 5419
5308 5313 5319 5324 5329 5333 5338 5342 5346 5350 5355 5359 5363 5365 5368 5371 5374 5375 5377 5378 5379 5379 5380 5380 5380 5379 5377 5376 5376 5377 5379 5382 5385 5387 5389 5390 5392 5392 5393 5394 5395 5397 5400 5402 5404 5406 5408 5410 5412 5414 5415 5415 5415 5415
5299 5304 5310 5314 5319 5324 5329 5334 5338 5343 5347 5351 5355 5358 5360 5363 5366 5369 5371 5373 5373 5374 5375 5375 5376 5375 5375 5375 5375 5376 5377 5380 5382 5383 5385 5387 5388 5390 5392 5394 5396 5398 5399 5400 5402 5404 5405 5407 5409 5410 5411 5411 5411 5411
5290 5295 5300 5306 5311 5316 5321 5325 5329 5333 5337 5342 5346 5349 5353 5355 5359 5362 5364 5366 5368 5369 5370 5371 5372 5372 5372 5373 5374 5375 5376 5377 5379 5381 5383 5385 5387 5389 5391 5393 5394 5396 5397 5398 5400 5401 5402 5403 5405 5405 5406 5406 5406 5407
5281 5286 5292 5297 5302 5307 5312 5316 5320 5324 5329 5333 5337 5341 5344 5347 5350 5353 5356 5359 5361 5363 5364 5366 5367 5368 5368 5369 5371 5372 5374 5375 5376 5378 5381 5383 5385 5386 5388 5390 5391 5393 5394 5395 5396 5397 5398 5399 5400 5401 5401 5402 5402 5402
5271 5277 5283 5288 5293 5298 5303 5307 5312 5316 5320 5324 5328 5332 5336 5339 5342 5345 5348 5351 5354 5356 5358 5360 5362 5363 5365 5365 5367 5369 5370 5372 5374 5376 5378 5379 5381 5383 5385 5386 5388 5389 5390 5391 5392 5393 5394 5395 5396 5396 5397 5397 5398 5398
5263 5268 5274 5279 5283 5289 5294 5299 5303 5307 5311 5315 5319 5323 5326 5330 5334 5338 5340 5343 5346 5349 5351 5354 5356 5357 5359 5361 5362 5364 5366 5368 5369 5371 5373 5375 5376 5378 5380 5381 5383 5385 5386 5386 5387 5388 5389 5390 5391 5391 5392 5393 5393 5393